Вернуться в каталог

ATLAS 41E R/B

АктивенLEO
NORAD 15596·ROCKET BODY·🇺🇸 United States

Запущен Mar 13, 1985 с Vandenberg Space Force Base

Loading…

Ближайшие Пролёты (ближайшие 24 часа)

TLE

СвежийSource: Space-Track

Эпоха: Sep 14, 2026, 07:59 UTC

1 15596U 85021B   26257.33316203  .00000139  00000-0  79663-4 0  9993
2 15596 108.0415  50.3983 0029926  73.0726 309.2124 14.44485055179950

Отслеживайте ATLAS 41E R/B в реальном времени с AllMySat

Download on the App Store